Syracuse, NY

9:23 AM EDT on October 21, 2019 (GMT -0400)
Syracuse Hancock International

Weather History for KSYR - September, 2019

Change the Weather History Date:

Tuesday, September 17, 2019

  Actual Average Record
Temperature  
Mean Temperature 60 °F 62 °F  
Max Temperature 73 °F 72 °F 89 °F (1942)
Min Temperature 47 °F 52 °F 36 °F (1986)
Degree Days  
Heating Degree Days 4 5  
Month to date heating degree days 29 49  
Since 1 July heating degree days 34 75  
Cooling Degree Days 0 1  
Month to date cooling degree days 21 42  
Year to date cooling degree days 589 555  
Growing Degree Days 10 (Base 50)    
Moisture  
Dew Point 49 °F    
Average Humidity 70    
Maximum Humidity 93    
Minimum Humidity 38    
Precipitation  
Precipitation 0.00 in 0.13 in 0.95 in (1974)
Month to date precipitation 2.04 2.03  
Year to date precipitation 32.68 26.62  
Snow  
Snow 0.00 in 0.00 in 0.00 in (2002)
Month to date snowfall 0.0 0.0  
Since 1 July snowfall T 0.0  
Since 1 September snowfall 0.0 0.0  
Snow Depth 0.00 in    
Sea Level Pressure  
Sea Level Pressure 30.19 in    
Wind  
Wind Speed 2 mph ()    
Max Wind Speed 15 mph    
Max Gust Speed 18 mph    
Visibility 10.0 miles    
Events Fog    
T = Trace of Precipitation, MM = Missing Value Source: Averaged Metar Reports

Daily Weather History Graph

Daily Weather History Graph

Search for Another Location

Airport or City:

Astronomy

Sep. 17, 2019 Rise Set
Actual Time 6:45 AM EDT 7:11 PM EDT
Civil Twilight 6:17 AM EDT 7:39 PM EDT
Nautical Twilight 5:43 AM EDT 8:13 PM EDT
Astronomical Twilight 5:09 AM EDT 8:47 PM EDT
Moon 9:08 PM EDT (9/17) 9:52 AM EDT (9/17)
Length of Visible Light 13h 22m
Length of Day
12h 25m
Waning Gibbous, 89% of the Moon is Illuminated
Sep 17
Waning Gibbous
Sep 21
Last Quarter
Sep 28
New
Oct 5
First Quarter
Oct 13
Full

Hourly Weather History & Observations

Time (EDT) Temp. Dew Point Humidity Pressure Visibility Wind Dir Wind Speed Gust Speed Precip Events Conditions
12:54 AM 53.1 °F 50.0 °F 89% 30.15 in 10.0 mi Calm Calm - N/A   Partly Cloudy
1:54 AM 52.0 °F 48.9 °F 89% 30.15 in 10.0 mi East 3.5 mph - N/A   Partly Cloudy
2:54 AM 50.0 °F 46.9 °F 89% 30.16 in 10.0 mi Calm Calm - N/A   Scattered Clouds
3:54 AM 50.0 °F 46.9 °F 89% 30.16 in 10.0 mi Calm Calm - N/A   Partly Cloudy
4:54 AM 48.9 °F 46.9 °F 93% 30.16 in 10.0 mi Calm Calm - N/A   Clear
5:54 AM 48.9 °F 46.0 °F 90% 30.17 in 10.0 mi Calm Calm - N/A Fog Patches of Fog
6:54 AM 48.0 °F 45.0 °F 89% 30.19 in 10.0 mi Calm Calm - N/A   Clear
7:54 AM 51.1 °F 48.0 °F 89% 30.21 in 10.0 mi Calm Calm - N/A   Clear
8:54 AM 57.0 °F 51.1 °F 81% 30.22 in 10.0 mi Calm Calm - N/A   Clear
9:54 AM 62.1 °F 51.1 °F 67% 30.23 in 10.0 mi Variable 3.5 mph - N/A   Partly Cloudy
10:54 AM 66.0 °F 53.1 °F 63% 30.22 in 10.0 mi Variable 3.5 mph - N/A   Partly Cloudy
11:54 AM 70.0 °F 53.1 °F 55% 30.22 in 10.0 mi Variable 3.5 mph - N/A   Partly Cloudy
12:54 PM 72.0 °F 50.0 °F 46% 30.21 in 10.0 mi Variable 5.8 mph - N/A   Partly Cloudy
1:54 PM 73.9 °F 48.0 °F 40% 30.19 in 10.0 mi Variable 6.9 mph - N/A   Partly Cloudy
2:54 PM 73.0 °F 46.9 °F 39% 30.18 in 10.0 mi NNW 10.4 mph - N/A   Partly Cloudy
3:54 PM 73.0 °F 48.9 °F 42% 30.17 in 10.0 mi NNW 9.2 mph - N/A   Partly Cloudy
4:54 PM 71.1 °F 46.9 °F 42% 30.17 in 10.0 mi NNW 12.7 mph - N/A   Partly Cloudy
5:54 PM 69.1 °F 48.9 °F 49% 30.17 in 10.0 mi NW 12.7 mph - N/A   Partly Cloudy
6:54 PM 64.9 °F 48.0 °F 54% 30.18 in 10.0 mi NNW 8.1 mph - N/A   Partly Cloudy
7:54 PM 60.1 °F 48.0 °F 64% 30.19 in 10.0 mi NNW 5.8 mph - N/A   Clear
8:54 PM 57.9 °F 50.0 °F 75% 30.19 in 10.0 mi North 3.5 mph - N/A   Clear
9:54 PM 57.0 °F 51.1 °F 81% 30.21 in 10.0 mi Calm Calm - N/A   Clear
10:54 PM 53.1 °F 48.9 °F 86% 30.22 in 10.0 mi Calm Calm - N/A   Clear
11:54 PM 52.0 °F 48.9 °F 89% 30.23 in 10.0 mi Calm Calm - N/A   Partly Cloudy